When you browse on this site, cookies collect data to enhance your experience and personalize the content and advertising you see.
Visit our Privacy Policy to learn more. By continuing to use the site, you agree to this use of cookies and data.
  • în România
  • Lista ţărilor
  • Pe 7 zile
  • Temperatura apei
  • Hartă satelitară
  • Meteo pe hartă
  • Widget-uri
  • user-avatar
    Intrare

    Meteo pe oră la Nashville

    Astăzi, 12 Decembrie, Miercuri

    Timp Temperatura Precipitaţii Vânt Presiune Umiditate
    00:00 0°C° 0 mm 3 m/s 755 mmHg 66%
    01:00 0°C° 0 mm 3 m/s 755 mmHg 66%
    02:00 0°C° 0 mm 3 m/s 755 mmHg 66%
    03:00 +1°C° 0 mm 3 m/s 755 mmHg 66%
    04:00 +1°C° 0 mm 3 m/s 754 mmHg 64%
    05:00 0°C° 0 mm 4 m/s 754 mmHg 62%
    06:00 +1°C° 0 mm 4 m/s 754 mmHg 60%
    07:00 +3°C° 0 mm 4 m/s 754 mmHg 58%
    08:00 +3°C° 0 mm 5 m/s 754 mmHg 55%
    09:00 +3°C° 0 mm 5 m/s 754 mmHg 53%
    10:00 +5°C° 0 mm 6 m/s 753 mmHg 53%
    11:00 +8°C° 0 mm 6 m/s 753 mmHg 53%
    12:00 +9°C° 0 mm 6 m/s 752 mmHg 53%
    13:00 +9°C° 0 mm 6 m/s 752 mmHg 56%
    14:00 +9°C° 0 mm 5 m/s 751 mmHg 59%
    15:00 +10°C° 0 mm 5 m/s 751 mmHg 62%
    16:00 +8°C° 0 mm 5 m/s 751 mmHg 65%
    17:00 +7°C° 0 mm 4 m/s 752 mmHg 69%
    18:00 +6°C° 0 mm 4 m/s 752 mmHg 73%
    19:00 +7°C° 0 mm 3 m/s 752 mmHg 73%
    20:00 +7°C° 0 mm 3 m/s 752 mmHg 73%
    21:00 +7°C° 0 mm 3 m/s 752 mmHg 73%
    22:00 +7°C° 0 mm 3 m/s 752 mmHg 74%
    23:00 +7°C° 0 mm 2 m/s 752 mmHg 76%

    Mâine, 13 Decembrie, Joi

    Timp Temperatura Precipitaţii Vânt Presiune Umiditate
    00:00 +7°C° 0 mm 2 m/s 752 mmHg 77%
    01:00 +7°C° 0.1 mm 2 m/s 752 mmHg 78%
    02:00 +7°C° 0.1 mm 2 m/s 752 mmHg 80%
    03:00 +7°C° 0.1 mm 2 m/s 752 mmHg 82%
    04:00 +7°C° 0.1 mm 3 m/s 752 mmHg 83%
    05:00 +7°C° 0.1 mm 3 m/s 752 mmHg 85%
    06:00 +7°C° 0.1 mm 3 m/s 752 mmHg 87%
    07:00 +8°C° 0 mm 3 m/s 752 mmHg 86%
    08:00 +7°C° 0 mm 4 m/s 752 mmHg 85%
    09:00 +8°C° 0 mm 4 m/s 752 mmHg 84%
    10:00 +10°C° 0 mm 5 m/s 752 mmHg 79%
    11:00 +12°C° 0 mm 5 m/s 752 mmHg 74%
    12:00 +14°C° 0 mm 6 m/s 751 mmHg 69%
    13:00 +14°C° 0 mm 5 m/s 751 mmHg 71%
    14:00 +14°C° 0 mm 5 m/s 750 mmHg 74%
    15:00 +14°C° 0 mm 4 m/s 750 mmHg 77%
    16:00 +13°C° 0 mm 4 m/s 750 mmHg 79%
    17:00 +12°C° 0 mm 4 m/s 750 mmHg 81%
    18:00 +11°C° 0 mm 4 m/s 750 mmHg 83%
    19:00 +10°C° 0.3 mm 5 m/s 750 mmHg 82%
    20:00 +9°C° 0.3 mm 5 m/s 750 mmHg 82%
    21:00 +9°C° 0.3 mm 5 m/s 750 mmHg 81%
    22:00 +9°C° 0.2 mm 5 m/s 749 mmHg 82%
    23:00 +9°C° 0.2 mm 6 m/s 749 mmHg 83%

    Poimâine, 14 Decembrie, Vineri

    Timp Temperatura Precipitaţii Vânt Presiune Umiditate
    00:00 +9°C° 0.2 mm 6 m/s 749 mmHg 84%
    01:00 +9°C° 0.6 mm 6 m/s 748 mmHg 85%
    02:00 +9°C° 0.6 mm 5 m/s 747 mmHg 87%
    03:00 +9°C° 0.6 mm 5 m/s 747 mmHg 89%
    04:00 +10°C° 2.2 mm 5 m/s 746 mmHg 90%
    05:00 +11°C° 2.2 mm 4 m/s 746 mmHg 91%
    06:00 +11°C° 2.2 mm 4 m/s 745 mmHg 92%
    07:00 +11°C° 0.7 mm 4 m/s 745 mmHg 92%
    08:00 +11°C° 0.7 mm 4 m/s 745 mmHg 91%
    09:00 +12°C° 0.7 mm 4 m/s 745 mmHg 91%
    10:00 +12°C° 1.1 mm 4 m/s 744 mmHg 91%
    11:00 +12°C° 1.1 mm 4 m/s 744 mmHg 92%
    12:00 +12°C° 1.1 mm 4 m/s 743 mmHg 92%
    13:00 +13°C° 0.5 mm 3 m/s 743 mmHg 92%
    14:00 +13°C° 0.5 mm 3 m/s 743 mmHg 92%
    15:00 +13°C° 0.5 mm 3 m/s 742 mmHg 92%
    16:00 +13°C° 0.1 mm 2 m/s 743 mmHg 92%
    17:00 +12°C° 0.1 mm 2 m/s 743 mmHg 92%
    18:00 +12°C° 0.1 mm 1 m/s 743 mmHg 92%
    19:00 +11°C° 0.1 mm 1 m/s 743 mmHg 92%
    20:00 +11°C° 0.1 mm 1 m/s 743 mmHg 92%
    21:00 +9°C° 0.1 mm 2 m/s 743 mmHg 92%
    22:00 +9°C° 0.3 mm 2 m/s 743 mmHg 93%
    23:00 +10°C° 0.3 mm 2 m/s 742 mmHg 93%

    15 Decembrie, Sâmbătă

    Timp Temperatura Precipitaţii Vânt Presiune Umiditate
    00:00 +10°C° 0.3 mm 2 m/s 742 mmHg 94%
    01:00 +9°C° 0.1 mm 2 m/s 743 mmHg 94%
    02:00 +9°C° 0.1 mm 2 m/s 743 mmHg 95%
    03:00 +8°C° 0.1 mm 2 m/s 743 mmHg 95%
    04:00 +7°C° 0 mm 2 m/s 743 mmHg 95%
    05:00 +7°C° 0 mm 2 m/s 744 mmHg 96%
    06:00 +7°C° 0 mm 2 m/s 744 mmHg 96%
    07:00 +8°C° 0 mm 1 m/s 745 mmHg 93%
    08:00 +9°C° 0 mm 1 m/s 745 mmHg 90%
    09:00 +10°C° 0 mm 1 m/s 746 mmHg 87%
    10:00 +11°C° 0 mm 1 m/s 746 mmHg 84%
    11:00 +11°C° 0 mm 1 m/s 746 mmHg 81%
    12:00 +12°C° 0 mm 1 m/s 746 mmHg 77%
    13:00 +12°C° 0 mm 2 m/s 746 mmHg 78%
    14:00 +12°C° 0 mm 2 m/s 746 mmHg 79%
    15:00 +11°C° 0 mm 3 m/s 746 mmHg 79%
    16:00 +11°C° 0 mm 3 m/s 747 mmHg 83%
    17:00 +10°C° 0 mm 3 m/s 748 mmHg 87%
    18:00 +10°C° 0 mm 3 m/s 748 mmHg 91%
    19:00 +8°C° 0.1 mm 4 m/s 749 mmHg 91%
    20:00 +8°C° 0.1 mm 4 m/s 749 mmHg 90%
    21:00 +8°C° 0.1 mm 4 m/s 750 mmHg 90%
    22:00 +8°C° 0 mm 4 m/s 750 mmHg 89%
    23:00 +8°C° 0 mm 4 m/s 750 mmHg 89%

    16 Decembrie, Duminică

    Timp Temperatura Precipitaţii Vânt Presiune Umiditate
    00:00 +8°C° 0 mm 4 m/s 750 mmHg 89%
    01:00 +7°C° 0 mm 4 m/s 751 mmHg 89%
    02:00 +7°C° 0 mm 4 m/s 751 mmHg 89%
    03:00 +7°C° 0 mm 4 m/s 752 mmHg 89%
    04:00 +6°C° 0 mm 4 m/s 752 mmHg 90%
    05:00 +5°C° 0 mm 3 m/s 753 mmHg 91%
    06:00 +4°C° 0 mm 3 m/s 753 mmHg 92%
    07:00 +5°C° 0 mm 3 m/s 754 mmHg 89%
    08:00 +5°C° 0 mm 3 m/s 754 mmHg 87%
    09:00 +5°C° 0 mm 3 m/s 755 mmHg 84%
    10:00 +7°C° 0 mm 3 m/s 755 mmHg 78%
    11:00 +8°C° 0 mm 3 m/s 754 mmHg 71%
    12:00 +10°C° 0 mm 3 m/s 754 mmHg 64%
    13:00 +10°C° 0 mm 3 m/s 754 mmHg 63%
    14:00 +10°C° 0 mm 3 m/s 754 mmHg 62%
    15:00 +10°C° 0 mm 3 m/s 754 mmHg 61%
    16:00 +9°C° 0 mm 2 m/s 755 mmHg 66%
    17:00 +8°C° 0 mm 2 m/s 755 mmHg 71%
    18:00 +7°C° 0 mm 1 m/s 756 mmHg 76%
    19:00 +6°C° 0 mm 2 m/s 756 mmHg 80%
    20:00 +5°C° 0 mm 2 m/s 756 mmHg 83%
    21:00 +5°C° 0 mm 2 m/s 756 mmHg 86%
    22:00 +5°C° 0 mm 2 m/s 756 mmHg 88%
    23:00 +5°C° 0 mm 1 m/s 756 mmHg 91%

    17 Decembrie, Luni

    Timp Temperatura Precipitaţii Vânt Presiune Umiditate
    00:00 +5°C° 0 mm 1 m/s 756 mmHg 93%
    01:00 +4°C° 0 mm 2 m/s 756 mmHg 93%
    02:00 +4°C° 0 mm 2 m/s 756 mmHg 94%
    03:00 +3°C° 0 mm 2 m/s 756 mmHg 94%
    04:00 +3°C° 0 mm 2 m/s 756 mmHg 94%
    05:00 +2°C° 0 mm 2 m/s 757 mmHg 94%
    06:00 +2°C° 0 mm 2 m/s 757 mmHg 94%
    07:00 +3°C° 0 mm 2 m/s 757 mmHg 89%
    08:00 +4°C° 0 mm 2 m/s 757 mmHg 83%
    09:00 +4°C° 0 mm 2 m/s 758 mmHg 77%
    10:00 +6°C° 0 mm 2 m/s 757 mmHg 68%
    11:00 +7°C° 0 mm 3 m/s 757 mmHg 59%
    12:00 +9°C° 0 mm 3 m/s 757 mmHg 50%
    13:00 +9°C° 0 mm 3 m/s 757 mmHg 50%
    14:00 +9°C° 0 mm 3 m/s 756 mmHg 50%
    15:00 +9°C° 0 mm 3 m/s 756 mmHg 50%
    16:00 +7°C° 0 mm 3 m/s 757 mmHg 56%
    17:00 +5°C° 0 mm 3 m/s 757 mmHg 63%
    18:00 +4°C° 0 mm 2 m/s 757 mmHg 69%
    19:00 +3°C° 0 mm 2 m/s 758 mmHg 71%
    20:00 +3°C° 0 mm 2 m/s 758 mmHg 74%
    21:00 +2°C° 0 mm 2 m/s 758 mmHg 76%
    22:00 +1°C° 0 mm 2 m/s 758 mmHg 77%
    23:00 +1°C° 0 mm 2 m/s 758 mmHg 78%
    Arată mai mult